Time,B instrument,Bx,By,Bz,sigma B,Ion instrument,Status,Tp_par,Tp_perp,carrot,r_sun,clat,clong,earth_he_angle,n_p,vp_x,vp_y,vp_z,vth_p_par,vth_p_perp
1975-02-11 00:00:28,1,12.6333,-2.68889,2.84111,1.4332,1,1,89334.4,305150.0,1624,0.65421772,-6.2309904,100.35791,353.74463,4.98423,614.23,10.8079,18.5822,38.4032,70.9765
1975-02-11 00:01:49,1,11.6315,-5.67753,0.941573,2.27992,1,1,73837.3,270273.0,1624,0.65421003,-6.23106,100.34644,353.74487,4.3378,620.701,39.3498,6.75152,34.9137,66.7974
1975-02-11 00:05:32,-1,nan,nan,nan,nan,1,4,nan,nan,1624,0.65417933,-6.2313404,100.31299,353.74658,nan,nan,nan,nan,nan,nan
1975-02-11 00:06:12,1,12.2024,-2.89048,4.46905,1.03309,1,1,82360.1,267020.0,1624,0.65417171,-6.231411,100.30737,353.74683,4.66061,607.314,15.2594,12.5048,36.8737,66.3941
1975-02-11 00:06:53,1,11.0598,-2.94512,6.70366,2.62857,1,1,62482.9,265772.0,1624,0.65417171,-6.231411,100.30151,353.74683,4.49632,614.558,4.51458,-24.84,32.1173,66.2388
1975-02-11 00:07:33,1,8.60235,-4.34824,9.32471,2.46216,1,1,75307.3,285561.0,1624,0.65416402,-6.2314816,100.29614,353.74731,4.40981,642.957,-1.3595,-67.305,35.2595,68.6606
1975-02-11 00:08:14,1,8.82857,-4.83214,9.07381,1.09042,1,1,81760.1,313050.0,1624,0.65415639,-6.2315512,100.29053,353.74756,4.69164,648.58,33.2013,-58.2859,36.7391,71.8894
1975-02-11 00:08:54,1,8.38523,-4.38636,9.66136,1.2117,1,1,91779.1,326652.0,1624,0.65415639,-6.2315512,100.28271,353.74756,5.19933,643.527,32.5142,-49.8495,38.9251,73.4346
1975-02-11 00:09:35,1,7.79286,-4.4131,9.85952,2.76102,1,1,71029.4,336091.0,1624,0.6541487,-6.2316217,100.27734,353.74805,4.54685,651.44,19.7879,-68.3873,34.2434,74.488
1975-02-11 00:10:15,1,7.10337,-6.66854,9.47191,1.61106,1,1,91557.1,291381.0,1624,0.65414101,-6.2316914,100.27197,353.74854,4.45602,652.317,42.7475,-45.1047,38.878,69.3567
1975-02-11 00:10:56,1,6.41364,-7.47386,9.23068,1.77707,1,1,73842.4,304343.0,1624,0.65414101,-6.2316914,100.26611,353.74854,4.67536,665.51,48.7914,-55.2906,34.9149,70.8826
1975-02-11 00:11:36,1,6.35114,-8.63523,8.22727,1.0921,1,1,81915.8,246151.0,1624,0.65413338,-6.2317619,100.2605,353.74878,4.38769,657.389,31.232,-57.5662,36.7741,63.7468
1975-02-11 00:12:17,1,7.09213,-7.15393,9.12697,1.70518,1,1,80597.4,327937.0,1624,0.65412569,-6.2318316,100.25513,353.74927,5.31859,667.474,64.718,-39.4941,36.4769,73.5789
1975-02-11 00:12:57,1,9.64839,-6.01828,6.97957,2.00559,1,1,87313.2,257792.0,1624,0.65412569,-6.2318316,100.24927,353.74927,4.15795,661.49,34.4496,-64.802,37.9663,65.2368
1975-02-11 00:13:38,1,7.19886,-6.56477,9.10227,3.02518,1,1,96249.3,317538.0,1624,0.654118,-6.2319021,100.24194,353.74976,5.33522,636.674,29.9297,-40.4032,39.8618,72.4029
1975-02-11 00:14:18,1,5.92273,-6.2375,10.4841,1.13977,1,1,76419.9,266098.0,1624,0.65411037,-6.2319717,100.23633,353.75,3.53807,679.959,31.4179,-78.596,35.519,66.2794
1975-02-11 00:14:59,1,6.33258,-7.85169,8.92584,1.56201,1,1,78443.1,258281.0,1624,0.65411037,-6.2319727,100.23047,353.75,4.09157,669.198,38.647,-59.8623,35.9862,65.2986
1975-02-11 00:15:39,1,5.84318,-8.51591,8.19659,2.72376,1,1,103492.0,356355.0,1624,0.65410268,-6.2320423,100.2251,353.75049,5.19765,678.48,67.991,-42.2662,41.3344,76.7007
1975-02-11 00:16:20,1,9.63409,-5.48636,7.62955,1.11755,1,1,86397.9,271096.0,1624,0.65409505,-6.2321129,100.21948,353.75073,4.41295,642.828,39.1595,-37.1398,37.7667,66.899
1975-02-11 00:17:00,1,11.3719,-3.01011,6.62584,1.36978,1,1,88588.6,298209.0,1624,0.65408736,-6.2321825,100.21411,353.75122,4.61812,638.159,25.5344,-35.6174,38.2425,70.1646
1975-02-11 00:17:41,1,11.5679,-2.39167,6.04167,2.4035,1,1,55520.2,307582.0,1624,0.65408736,-6.2321825,100.2063,353.75122,4.68998,617.515,2.07364,-26.5086,30.275,71.2588
1975-02-11 00:18:21,1,12.975,-1.46548,2.6869,0.876838,1,1,67455.4,308834.0,1624,0.65407968,-6.2322531,100.20093,353.75171,4.78065,605.746,-9.50455,-11.387,33.3708,71.4036
1975-02-11 00:19:02,1,12.8854,-2.1439,2.31829,1.17829,1,1,69659.8,315823.0,1624,0.65407205,-6.2323227,100.19531,353.75195,4.75077,606.752,2.49531,-5.93944,33.9116,72.2071
1975-02-11 00:19:42,1,12.8471,0.462353,0.352941,2.33219,1,1,80542.6,248811.0,1624,0.65407205,-6.2323227,100.18945,353.75195,4.36869,600.539,-5.49344,10.9552,36.4645,64.0903
1975-02-11 00:20:23,1,12.822,-0.147561,2.98902,2.44347,1,1,119658.0,314645.0,1624,0.65406436,-6.2323933,100.18408,353.75244,5.14533,611.683,-60.2464,13.7151,44.4456,72.0722
1975-02-11 00:21:03,1,12.5048,-2.1131,4.34762,1.912,1,1,83804.6,305129.0,1624,0.65405673,-6.2324629,100.17847,353.75269,4.84483,609.712,-13.6724,-14.0199,37.1956,70.9741
1975-02-11 00:21:44,1,11.8337,-4.26506,4.29277,2.2846,1,1,81449.1,295750.0,1624,0.65405673,-6.2324629,100.17065,353.75269,4.67221,617.897,23.7162,-8.97758,36.6692,69.8747
1975-02-11 00:22:24,1,11.4524,-3.36905,6.24048,1.97723,1,1,70322.4,269165.0,1624,0.65404904,-6.2325335,100.16528,353.75317,4.61456,621.829,7.69223,-35.8877,34.0725,66.6603
1975-02-11 00:23:05,1,12.4512,-1.1619,5.07262,1.2463,1,1,61971.3,289434.0,1624,0.65404135,-6.232604,100.15991,353.75366,4.61087,618.316,7.1059,-23.6915,31.9855,69.1246
1975-02-11 00:23:45,1,11.8726,-4.56071,2.875,2.62634,1,1,83926.3,321884.0,1624,0.65404135,-6.232604,100.15405,353.75366,4.66956,612.269,-7.65528,-18.8245,37.2226,72.8967
1975-02-11 00:24:26,1,9.95059,-4.81647,7.02,3.23202,1,1,82002.1,278894.0,1624,0.65403372,-6.2326736,100.14844,353.75391,4.63448,626.767,36.9473,-13.187,36.7934,67.8543
1975-02-11 00:25:06,1,8.65765,-8.65059,4.78824,2.25573,1,1,86648.5,322381.0,1624,0.65402603,-6.2327442,100.14307,353.75439,4.7635,639.856,44.8493,-27.3375,37.8215,72.9529
1975-02-11 00:25:47,1,10.0244,-4.94767,7.02093,2.41833,1,1,112939.0,222811.0,1624,0.65402603,-6.2327442,100.13525,353.75439,4.27651,662.393,73.4352,-21.3253,43.1797,60.6494
1975-02-11 00:26:27,1,9.99432,-4.72045,7.325,1.20828,1,1,68873.0,277209.0,1624,0.65401834,-6.2328138,100.12988,353.75488,3.83981,628.631,26.9888,-42.0795,33.7196,67.649
1975-02-11 00:27:08,1,8.38,-8.24235,2.49882,1.76286,1,1,102181.0,251874.0,1624,0.65401071,-6.2328844,100.12427,353.75513,4.17063,634.036,33.5525,-32.4746,41.0717,64.4836
1975-02-11 00:27:48,1,8.44432,-2.63295,8.86932,2.60445,1,1,239581.0,272691.0,1624,0.65401071,-6.2328844,100.11841,353.75513,5.48504,650.293,42.9986,5.7704,62.8904,67.0955
1975-02-11 00:28:29,1,8.82907,-2.5314,8.82442,0.999426,1,1,98824.4,332192.0,1624,0.65400302,-6.232954,100.11304,353.75562,4.60816,646.804,7.46858,-53.4405,40.3915,74.0546
1975-02-11 00:29:09,1,8.61685,-3.53933,8.41124,1.61609,1,1,91813.1,384588.0,1624,0.65399539,-6.2330246,100.10742,353.75586,5.05181,640.289,-1.3411,-49.9322,38.9323,79.6811
1975-02-11 00:29:50,1,8.82024,-2.67976,8.50238,1.65763,1,1,115685.0,373672.0,1624,0.65399539,-6.2330246,100.09961,353.75586,4.86511,649.576,21.0547,-35.5507,43.7015,78.5422
1975-02-11 00:30:30,1,8.48182,-1.27955,8.94545,1.6924,1,1,110341.0,358691.0,1624,0.65398771,-6.2330952,100.09424,353.75635,4.68976,648.206,6.35541,-44.6209,42.6801,76.9517
1975-02-11 00:31:11,1,8.05814,-0.589535,9.51628,1.6764,1,1,121371.0,335477.0,1624,0.65396678,-6.2117662,100.09509,353.76306,4.20257,665.225,-21.2948,-62.8908,44.7626,74.42
1975-02-11 00:34:22,-1,nan,nan,nan,nan,1,4,nan,nan,1624,0.65395707,-6.2333755,100.06055,353.75781,nan,nan,nan,nan,nan,nan
1975-02-11 00:35:02,1,9.4875,-8.175,-1.0625,0.793922,1,1,109645.0,340206.0,1624,0.65394938,-6.2334452,100.05518,353.7583,5.76912,646.78,39.5536,21.5294,42.5453,74.9426
1975-02-11 00:35:43,1,9.18261,-8.5087,-0.556522,0.730331,1,1,107619.0,344783.0,1624,0.65394938,-6.2334452,100.04932,353.7583,5.9609,655.842,48.0853,17.9714,42.1505,75.4451
1975-02-11 00:36:23,1,9.08095,-8.75714,-0.738095,0.815719,1,1,113119.0,335780.0,1624,0.65394169,-6.2335157,100.04395,353.75879,5.94989,652.42,43.0393,18.2334,43.214,74.4535
1975-02-11 00:36:56,1,9.18333,-8.79444,-1.28889,0.82705,1,1,134073.0,339664.0,1624,0.65394169,-6.2335157,100.03809,353.75879,5.69233,658.306,43.0141,30.4012,47.0467,74.8829
1975-02-11 00:37:36,1,9.75,-8.40455,-0.545455,0.80281,1,1,95070.2,316446.0,1624,0.65393406,-6.2335863,100.03247,353.75903,5.619,656.673,39.4992,23.1804,39.6169,72.2783
1975-02-11 00:38:17,1,8.97826,-9.20435,-0.83913,0.789702,1,1,101935.0,288111.0,1624,0.65392637,-6.2336559,100.0271,353.75952,5.84532,659.923,33.7372,20.6929,41.0222,68.9664
1975-02-11 00:38:57,1,8.83478,-9.51304,-0.113043,0.792474,1,1,104186.0,296401.0,1624,0.65392637,-6.2336559,100.02124,353.75952,5.72427,660.216,39.7566,17.3758,41.4728,69.9516
1975-02-11 00:39:38,1,8.49545,-9.74545,0.218182,0.697294,1,1,126131.0,316566.0,1624,0.65391868,-6.2337265,100.01587,353.76001,5.96581,659.325,40.3824,14.5292,45.632,72.292
1975-02-11 00:40:18,1,9.5087,-8.93043,0.786957,1.19115,1,1,110229.0,332305.0,1624,0.65391105,-6.2337961,100.0083,353.76025,5.85187,657.672,40.248,15.8409,42.6586,74.0672
1975-02-11 00:40:59,1,9.99091,-7.76818,2.85455,1.53653,1,1,98448.9,318052.0,1624,0.65391105,-6.2337961,100.00244,353.76025,5.99694,656.63,30.4862,6.8307,40.3147,72.4614
1975-02-11 00:41:39,1,10.5043,-6.77826,3.21304,1.44214,1,1,91258.6,276758.0,1624,0.65390337,-6.2338667,99.99707,353.76074,5.47911,651.688,25.108,-15.2904,38.8146,67.594
1975-02-11 00:42:20,1,11.1348,-5.67391,3.17826,1.3233,1,1,96674.3,294789.0,1624,0.65389574,-6.2339363,99.991455,353.76099,5.05172,638.005,15.9967,2.38791,39.9497,69.7611
1975-02-11 00:43:00,1,11.255,-5.96,1.68,1.05994,1,1,81839.9,337100.0,1624,0.65388805,-6.2340069,99.986084,353.76147,5.54453,641.148,18.3703,4.40556,36.757,74.5997
1975-02-11 00:43:41,1,11.0591,-5.3,-0.881818,1.40301,1,1,97072.2,321727.0,1624,0.65388805,-6.2340069,99.980225,353.76147,6.06287,645.884,21.3772,21.4942,40.0318,72.8788
1975-02-11 00:44:21,1,5.85238,-2.99524,-8.73333,2.94124,1,1,164910.0,382564.0,1624,0.65388036,-6.2340765,99.974854,353.76196,4.5423,675.809,-15.5787,90.8315,52.1773,79.4712
1975-02-11 00:45:02,1,7.31818,-3.03182,-7.56364,2.70665,1,1,135141.0,361318.0,1624,0.65387273,-6.2341471,99.967285,353.76221,4.68529,672.688,13.3377,88.1912,47.2336,77.2329
1975-02-11 00:45:42,1,5.79545,-4.27273,-8.50455,2.16588,1,1,154130.0,329844.0,1624,0.65387273,-6.2341471,99.961426,353.76221,5.0246,670.095,-21.7856,78.4694,50.443,73.7925
1975-02-11 00:46:23,1,4.3087,-3.36522,-10.0565,1.18408,1,1,118196.0,394141.0,1624,0.65386504,-6.2342176,99.956055,353.7627,5.62059,686.127,0.298803,84.4335,44.1733,80.6647
1975-02-11 00:47:03,1,2.52273,3.35,-10.4409,2.3862,1,1,140518.0,296870.0,1624,0.65385741,-6.2342873,99.950439,353.76294,5.63822,709.405,-64.6322,82.8194,48.1641,70.0069
1975-02-11 00:47:44,1,5.4,0.33913,-8.6087,3.56281,1,1,136214.0,350447.0,1624,0.65385735,-6.2342873,99.94458,353.76294,5.04539,650.137,-17.9966,76.3119,47.4208,76.0623
1975-02-11 00:48:24,1,6.68,-3.45333,-6.86667,3.39759,1,1,120850.0,323096.0,1624,0.65384972,-6.2343578,99.939209,353.76343,4.76263,660.313,-1.8949,79.6522,44.6665,73.0338
1975-02-11 00:49:05,2,2.44,7.92,-6.7,1.93839,1,1,110457.0,298754.0,1624,0.65384203,-6.2344275,99.931885,353.76392,4.9044,698.801,-95.555,62.2582,42.7026,70.2287
1975-02-11 00:49:45,1,-21.2833,12.8,-27.95,0.678642,1,1,312117.0,318155.0,1624,0.65384203,-6.2344275,99.926025,353.76392,5.65072,683.768,-48.6932,90.0001,71.7822,72.4732
1975-02-11 00:50:26,1,3.23333,1.1,-8.3,6.34315,1,1,106109.0,283094.0,1624,0.6538344,-6.234498,99.92041,353.76416,4.21492,679.49,-61.8622,101.078,41.8537,68.3633
1975-02-11 00:51:06,1,5.76818,-1.63182,-7.4,3.74479,1,1,165251.0,336467.0,1624,0.65382671,-6.2345676,99.915039,353.76465,5.31885,642.711,5.68717,56.1447,52.2312,74.5297
1975-02-11 00:51:47,1,9.17826,-1.71304,-3.13043,2.72599,1,1,93369.0,317307.0,1624,0.65382671,-6.2345676,99.90918,353.76465,4.64463,630.218,2.77061,34.9566,39.2608,72.3765
1975-02-11 00:52:27,1,9.67273,1.90455,-2.16364,2.42097,1,1,132037.0,336874.0,1624,0.65381902,-6.2346382,99.903809,353.76514,4.92936,627.361,-30.403,13.504,46.688,74.5747
1975-02-11 00:53:08,-1,nan,nan,nan,nan,1,-3,nan,nan,1624,0.6538114,-6.2347088,99.89624,353.76538,nan,650.759,-56.8031,54.637,nan,nan
1975-02-11 00:53:48,1,8.13182,-2.82727,3.48182,4.00547,1,1,99873.0,359918.0,1624,0.6538114,-6.2347088,99.890381,353.76538,4.86308,648.842,-3.62397,-55.0814,40.6052,77.0832
1975-02-11 00:54:29,-1,nan,nan,nan,nan,1,4,nan,nan,1624,0.65380371,-6.2347784,99.88501,353.76587,nan,nan,nan,nan,nan,nan
1975-02-11 00:55:09,1,-6.16,3.64,-6.388,2.56349,1,1,241628.0,430594.0,1624,0.65379608,-6.234849,99.879395,353.76611,6.13769,785.931,-104.851,24.0153,63.1585,84.3125
1975-02-11 00:55:50,1,-7.964,3.784,-5.852,1.40077,1,1,90217.1,228834.0,1624,0.65379608,-6.234849,99.873535,353.76611,3.97363,796.58,-58.1097,69.2842,38.5925,61.4637
1975-02-11 00:56:30,1,-7.728,2.26,-6.612,0.916882,1,1,143301.0,347624.0,1624,0.65378839,-6.2349186,99.868164,353.7666,5.40189,805.992,-44.4339,56.2521,48.6387,75.7553
1975-02-11 00:57:11,1,-7.3,2.172,-7.344,0.760842,1,1,97185.4,326563.0,1624,0.6537807,-6.2349892,99.86084,353.76709,4.66875,792.191,-42.5006,79.1272,40.0552,73.4246
1975-02-11 00:57:51,1,-6.604,0.716,-8.34,1.17785,1,1,130001.0,340709.0,1624,0.6537807,-6.2349892,99.85498,353.76709,4.90644,794.719,-31.6938,87.3974,46.3267,74.998
1975-02-11 00:58:32,1,-5.616,1.144,-8.808,1.16333,1,1,133950.0,415531.0,1624,0.65377307,-6.2350588,99.849365,353.76733,5.57153,779.965,-27.8367,91.7352,47.0251,82.8246
1975-02-11 00:59:12,1,-7.35217,0.46087,-7.44348,1.59113,1,1,169836.0,356831.0,1624,0.65376538,-6.2351294,99.843994,353.76782,5.66952,809.267,-27.9332,66.0947,52.9508,76.7519
1975-02-11 00:59:53,1,-7.264,0.836,-7.408,0.812739,1,1,110559.0,384764.0,1624,0.65376538,-6.2351294,99.838135,353.76782,5.00639,798.466,-33.1715,84.7767,42.7223,79.6994
1975-02-11 01:00:33,1,-7.228,0.752,-7.296,0.841009,1,1,171150.0,312856.0,1624,0.65375769,-6.2351999,99.832764,353.76831,5.25083,794.209,-23.6908,80.5243,53.1553,71.8671
1975-02-11 01:01:14,1,-8.528,0.416,-6.512,1.23791,1,1,96377.9,347712.0,1624,0.65375006,-6.2352695,99.825195,353.76855,5.02183,806.749,-17.7344,65.8238,39.8884,75.7648
1975-02-11 01:01:54,1,-9.38,1.012,-5.352,0.848264,1,1,143421.0,313975.0,1624,0.65375006,-6.2352695,99.819336,353.76855,5.05307,813.519,-27.388,54.0121,48.659,71.9955
1975-02-11 01:02:35,1,-9.076,1.916,-6.036,1.17706,1,1,96173.4,335887.0,1624,0.65374237,-6.2353401,99.813965,353.76904,4.93419,803.242,-41.5552,67.0628,39.8461,74.4654
1975-02-11 01:03:15,1,-9.2875,1.98333,-6.22917,0.826367,1,1,122741.0,300985.0,1624,0.65373468,-6.2354097,99.80835,353.76929,4.66673,803.366,-36.3599,66.976,45.0146,70.4904
1975-02-11 01:03:56,1,-8.744,2.148,-6.424,1.17217,1,1,103156.0,327716.0,1624,0.65373468,-6.2354097,99.80249,353.76929,4.98144,793.001,-51.2645,75.6499,41.2671,73.5541
1975-02-11 01:04:36,1,-9.3087,1.96957,-5.23913,1.6424,1,1,139254.0,344413.0,1624,0.65372705,-6.2354803,99.797119,353.76978,5.31259,822.604,-28.1542,51.1982,47.947,75.4045
1975-02-11 01:05:17,1,-7.936,1.168,-6.508,2.64643,1,1,105164.0,336376.0,1624,0.65371937,-6.2355499,99.789795,353.77026,4.63531,797.588,-32.7805,80.3428,41.667,74.5196
1975-02-11 01:05:57,1,-7.108,0.068,-6.708,4.42751,1,1,489813.0,584015.0,1624,0.65371937,-6.2355499,99.783936,353.77026,8.57564,731.33,-44.1876,91.3502,89.9234,98.1906
1975-02-11 01:06:38,1,-9.74,0.484,-5.216,0.907903,1,1,129946.0,365529.0,1624,0.65371168,-6.2356205,99.77832,353.77051,5.23322,805.545,-40.3004,60.7831,46.3168,77.6817
1975-02-11 01:07:18,1,-10.4917,0.791667,-3.69583,1.12964,1,1,121164.0,282901.0,1624,0.65370405,-6.2356901,99.772949,353.771,4.81078,820.734,-25.589,35.9831,44.7245,68.34
1975-02-11 01:07:59,1,-10.072,3.212,-3.544,1.45187,1,1,98344.9,329691.0,1624,0.65370405,-6.2356901,99.76709,353.771,5.09326,810.104,-51.1364,47.8651,40.2934,73.7754
1975-02-11 01:08:39,1,-7.444,4.812,-6.452,1.46793,1,1,102124.0,362807.0,1624,0.65369636,-6.2357607,99.761719,353.77148,5.202,788.585,-66.9567,69.3821,41.0603,77.3919
1975-02-11 01:09:20,-1,nan,nan,nan,nan,1,-3,nan,nan,1624,0.65368867,-6.2358303,99.756104,353.77173,nan,735.883,-64.2382,91.7425,nan,nan
1975-02-11 01:10:00,1,8.9,-3.87273,-0.431818,5.43537,1,1,161686.0,272931.0,1624,0.65368104,-6.2359009,99.748779,353.77222,5.14742,646.765,0.548908,53.9574,51.6648,67.125
1975-02-11 01:10:41,1,7.40435,-5.42174,5.99565,3.12923,1,1,68221.8,264429.0,1624,0.65368098,-6.2359009,99.74292,353.77222,4.24425,659.696,28.3954,-39.7256,33.5598,66.0712
1975-02-11 01:11:21,1,1.30909,-3.48182,11.35,1.31332,1,1,158978.0,320911.0,1624,0.65367335,-6.2359705,99.737305,353.77246,4.87814,723.992,11.2396,-66.3559,51.2303,72.7864
1975-02-11 01:12:02,1,1.625,-5.97917,9.91667,1.66731,1,1,126563.0,332047.0,1624,0.65366566,-6.2360411,99.731934,353.77295,5.07252,714.449,28.8998,-62.5714,45.7099,74.0385
1975-02-11 01:12:42,1,3.84348,-4.83913,10.0435,1.7593,1,1,110440.0,364347.0,1624,0.65366566,-6.2360411,99.726074,353.77295,5.13046,698.946,9.41601,-61.9598,42.6993,77.556
1975-02-11 01:13:23,1,5.2913,-6.41739,7.47391,1.53984,1,1,114261.0,395427.0,1624,0.65365797,-6.2361107,99.720703,353.77344,5.14743,682.799,38.5412,-35.6797,43.4317,80.7963
1975-02-11 01:14:03,1,6.40833,-7.50417,2.69583,3.14084,1,1,181943.0,407364.0,1624,0.65365034,-6.2361813,99.713135,353.77368,6.32265,686.642,51.4325,22.7503,54.8057,82.0066
1975-02-11 01:14:44,1,6.4875,-7.3375,4.25,2.4297,1,1,122656.0,325073.0,1624,0.65365034,-6.2361813,99.707275,353.77368,5.51242,693.827,39.6362,-49.4301,44.9989,73.2569
1975-02-11 01:15:24,1,6.42273,-6.27273,6.33636,2.21126,1,1,120621.0,305122.0,1624,0.65364265,-6.2362518,99.701904,353.77417,5.54333,698.744,41.1606,-46.0963,44.6241,70.9732
1975-02-11 01:16:05,1,6.20435,-6.62174,0.865217,4.85727,1,1,176062.0,294333.0,1624,0.65363497,-6.2363214,99.696533,353.77466,5.28908,674.918,40.8776,-27.3097,53.9126,69.7071
1975-02-11 01:16:45,1,7.58261,-7.07826,-0.734783,2.66005,1,1,90889.6,290157.0,1624,0.65363497,-6.2363214,99.690674,353.77466,5.37091,667.802,34.8632,-8.20308,38.736,69.2109
1975-02-11 01:17:26,1,6.17391,-6.81739,-2.73043,3.90633,1,1,116800.0,276089.0,1624,0.65362734,-6.236392,99.685059,353.7749,5.32373,690.815,36.9391,47.1009,43.9116,67.5123
1975-02-11 01:18:06,1,4.09091,-7.87273,-5.00455,1.85854,1,1,94850.3,251839.0,1624,0.65361965,-6.2364616,99.677734,353.77539,5.225,699.059,42.7688,52.9684,39.571,64.4791
1975-02-11 01:18:47,-1,nan,nan,nan,nan,1,-3,nan,nan,1624,0.65361965,-6.2364616,99.671875,353.77539,nan,706.492,45.0427,34.8902,nan,nan
1975-02-11 01:19:27,-1,nan,nan,nan,nan,1,4,nan,nan,1624,0.65361196,-6.2365322,99.666504,353.77588,nan,nan,nan,nan,nan,nan
1975-02-11 01:20:08,-1,nan,nan,nan,nan,1,4,nan,nan,1624,0.65360433,-6.2366018,99.660889,353.77612,nan,nan,nan,nan,nan,nan
1975-02-11 01:20:48,1,6.2087,-7.83043,5.03913,2.2195,1,1,149861.0,318643.0,1624,0.65360427,-6.2366018,99.655029,353.77612,5.79552,695.278,54.027,-20.2696,49.7396,72.5287
1975-02-11 01:21:29,1,8.48696,-5.11304,5.47391,1.71536,1,1,96779.6,272103.0,1624,0.65359664,-6.2366724,99.649658,353.77661,4.96636,669.524,16.2671,-48.8462,39.9714,67.0231
1975-02-11 01:22:09,1,9.33913,-5.48696,2.51739,1.30873,1,1,93184.3,270931.0,1624,0.65358895,-6.236742,99.644043,353.77686,4.77405,661.542,25.6088,-18.2127,39.2219,66.8786
1975-02-11 01:24:10,1,8.6,-5.75333,3.08667,0.870811,1,1,90032.3,308991.0,1624,0.65357363,-6.2368822,99.625488,353.77783,5.70251,659.589,18.6902,-21.2533,38.5529,71.4218
1975-02-11 01:24:50,1,7.91304,-7.17391,2.27391,0.96312,1,1,90346.4,310305.0,1624,0.65357363,-6.2368822,99.619629,353.77783,5.3774,672.066,38.6191,-14.1738,38.6201,71.5735
1975-02-11 01:25:32,1,7.78182,-6.99091,-0.422727,1.92389,1,1,101853.0,312387.0,1624,0.65356594,-6.2369528,99.614014,353.77808,5.27741,679.291,47.5438,-2.22397,41.0058,71.8132
1975-02-11 01:26:12,1,8.80455,-5.43182,-0.772727,1.11194,1,1,84226.1,285011.0,1624,0.65355825,-6.2370224,99.608643,353.77856,4.77541,657.056,18.7508,29.7329,37.289,68.5944
1975-02-11 01:26:53,1,8.83182,-5.72727,0.536364,0.711026,1,1,76808.8,296091.0,1624,0.65355825,-6.2370224,99.60083,353.77856,5.39148,658.441,17.3423,-11.9526,35.6093,69.915
1975-02-11 01:27:33,1,9.75652,-3.47826,-0.547826,1.71125,1,1,83349.5,283091.0,1624,0.65355062,-6.237093,99.595459,353.77905,5.19534,652.341,13.1857,12.3275,37.0945,68.3629
1975-02-11 01:28:14,1,8.52273,-5.24545,0.695455,3.17134,1,1,87505.3,316800.0,1624,0.65354294,-6.2371626,99.589844,353.7793,6.06257,654.861,9.81188,10.1584,38.008,72.3187
1975-02-11 01:28:54,1,8.15,-5.39091,-2.1,2.8221,1,1,150586.0,296444.0,1624,0.65354294,-6.2371626,99.583984,353.7793,6.64013,676.85,19.254,50.7067,49.8598,69.9567
1975-02-11 01:29:35,1,7.1625,-7.0,1.025,3.77261,1,1,102929.0,286918.0,1624,0.65353525,-6.2372332,99.578613,353.77979,5.12726,659.13,25.0584,-8.96457,41.2217,68.8236
1975-02-11 01:30:15,1,4.98261,-9.52174,0.0782609,1.31333,1,1,136524.0,308431.0,1624,0.65352762,-6.2373037,99.573242,353.78027,5.74504,698.823,56.4148,17.1621,47.4748,71.3571
1975-02-11 01:30:56,1,3.95417,-8.5125,-4.05,2.61475,1,1,169182.0,305245.0,1624,0.65352756,-6.2373037,99.56543,353.78027,6.79767,700.567,45.8535,34.3083,52.8487,70.9876
1975-02-11 01:31:36,1,4.4087,-7.70435,-4.39565,2.5286,1,1,175910.0,362070.0,1624,0.65351993,-6.2373734,99.559814,353.78052,6.76694,705.109,54.3671,21.1222,53.8893,77.3133
1975-02-11 01:35:34,1,9.23,3.155,-4.325,1.48103,1,1,107627.0,281889.0,1624,0.65348923,-6.2376537,99.526367,353.78223,5.76645,650.699,-35.091,33.3696,42.1521,68.2176
1975-02-11 01:36:14,1,9.53182,2.10909,-4.38182,1.14572,1,1,112269.0,343157.0,1624,0.65348154,-6.2377243,99.520752,353.78247,6.35144,662.378,-43.3618,57.9462,43.0514,75.267
1975-02-11 01:36:20,1,9.4087,2.37826,-4.53913,0.961705,1,1,90965.5,312486.0,1624,0.65348154,-6.2377243,99.518799,353.78247,5.60902,654.533,-36.2838,49.5889,38.7522,71.8246
1975-02-11 01:37:00,1,9.19545,3.38636,-4.30909,0.504238,1,1,111198.0,350813.0,1624,0.65347391,-6.2377939,99.513428,353.78296,6.14417,660.821,-48.988,52.4911,42.8456,76.1019
1975-02-11 01:37:41,1,9.60455,5.06364,-0.945455,2.16727,1,1,128170.0,298358.0,1624,0.65347391,-6.2377939,99.507568,353.78296,5.8029,654.714,-62.0975,23.7616,45.9992,70.1821
1975-02-11 01:38:21,1,8.2913,6.93478,2.78696,1.8638,1,1,141334.0,307141.0,1624,0.65346622,-6.2378645,99.502197,353.78345,6.45249,675.448,-78.3103,-24.366,48.3039,71.2077
1975-02-11 01:39:02,-1,nan,nan,nan,nan,1,4,nan,nan,1624,0.65345854,-6.2379341,99.494629,353.78369,nan,nan,nan,nan,nan,nan
1975-02-11 01:39:42,1,7.75217,4.95652,3.73478,3.10095,1,1,536582.0,254852.0,1624,0.65345854,-6.2379341,99.48877,353.78369,6.44319,659.837,-68.5298,-16.8386,94.1187,64.8638
1975-02-11 01:40:23,1,6.51667,4.825,5.94583,2.27466,1,1,174535.0,232985.0,1624,0.65345091,-6.2380047,99.483398,353.78418,4.71552,681.113,-67.4678,-37.4559,53.6783,62.0185
1975-02-11 01:41:03,1,8.0087,3.96957,4.64348,1.71849,1,1,148253.0,336806.0,1624,0.65344322,-6.2380743,99.477783,353.78442,5.92638,670.534,-62.3777,-28.4926,49.4719,74.5672
1975-02-11 01:41:44,1,5.93182,6.20909,5.46364,1.88868,1,1,144707.0,360849.0,1624,0.65344322,-6.2380743,99.471924,353.78442,6.13432,686.709,-68.1761,-38.9818,48.8767,77.1828
1975-02-11 01:42:24,1,5.36087,6.31304,5.7087,1.81299,1,1,183021.0,267772.0,1624,0.65343553,-6.2381449,99.466553,353.78491,4.57539,694.219,-63.3231,-52.054,54.9678,66.4876
1975-02-11 01:43:05,1,6.05652,5.80435,5.18696,3.15975,1,1,209832.0,299534.0,1624,0.65342784,-6.2382145,99.459229,353.7854,5.85162,697.943,-64.4436,-50.9203,58.8564,70.3204
1975-02-11 01:43:45,-1,nan,nan,nan,nan,1,-3,nan,nan,1624,0.65342784,-6.2382145,99.453369,353.7854,nan,659.36,-57.0709,3.85187,nan,nan
1975-02-11 01:44:26,1,3.55217,4.92174,-7.38696,3.02671,1,1,122218.0,253279.0,1624,0.65342021,-6.2382851,99.447754,353.78564,5.31604,689.836,-53.9459,69.906,44.9185,64.6633
1975-02-11 01:45:06,1,7.85652,3.33478,-5.5913,1.03098,1,1,106799.0,316704.0,1624,0.65341252,-6.2383556,99.442383,353.78613,5.79723,668.123,-39.0601,56.8461,41.9897,72.3077
1975-02-11 01:45:47,1,5.53636,3.69091,-6.91818,2.59319,1,1,129236.0,303885.0,1624,0.65341252,-6.2383556,99.436523,353.78613,5.5531,670.86,-48.1138,50.4985,46.1902,70.8293